Theta_e
333 340 343 348 352 354 355 351 359 360 356 352 358 362 360 365 365 364 368 367 365 361 358 355 352 353 358 359 359 360 355 357 357 349 350 356 354 352 354 353 355 354 355 355 354 354 353 352 352 353 354 354 353 352 352 350 349 346 344 344 347 350 352 352 351 350 350 352 351 351 352 350 350 351 350 350 350 351 351 351 351 351 351 351 350 350 348 348 349 350 350 350 351 350 351 351 349
335 343 348 352 352 354 356 354 357 358 356 353 361 364 361 366 364 365 370 366 362 357 354 352 352 353 356 359 354 358 359 356 356 355 354 354 352 352 353 354 354 353 354 355 355 355 355 355 354 356 355 352 351 350 349 347 345 345 346 348 349 350 351 351 349 349 351 352 352 351 350 350 350 349 350 350 350 352 352 352 352 351 352 351 351 350 348 348 348 349 351 351 350 349 349 350 349
344 347 350 350 350 351 358 360 358 355 356 352 356 365 366 367 365 366 368 361 358 352 354 353 356 358 355 360 358 357 358 354 350 352 352 353 354 351 352 353 352 353 354 353 354 354 355 355 354 354 351 350 349 348 346 343 344 347 348 349 350 350 350 349 348 350 351 351 351 350 349 348 349 349 350 351 351 352 352 352 351 351 352 352 351 350 349 349 348 349 350 351 350 348 349 350 350
350 351 350 348 355 358 361 364 364 359 354 349 350 364 367 365 365 366 365 358 354 351 355 356 357 358 356 359 358 356 356 354 352 351 353 354 353 351 351 352 352 352 353 353 353 354 354 353 352 350 348 348 347 345 341 340 345 347 347 349 350 350 350 349 348 350 351 350 350 351 349 348 350 351 351 352 352 352 352 351 350 351 351 351 351 351 351 350 348 349 351 350 348 347 349 350 350
350 353 349 348 361 364 364 366 368 361 356 354 351 363 368 363 366 366 365 360 354 354 357 356 356 353 354 356 354 356 355 353 353 352 353 352 352 352 352 352 352 352 353 353 354 353 350 350 350 349 349 349 347 342 337 341 345 345 347 349 350 350 350 350 349 350 351 350 351 351 348 349 350 351 352 351 351 352 352 351 350 350 351 352 352 352 352 351 350 350 351 350 347 347 348 349 349
351 355 347 348 360 362 364 363 363 361 363 365 358 365 367 361 366 363 361 358 355 357 356 356 354 352 353 353 352 353 352 353 355 353 352 352 351 353 353 352 352 353 353 352 354 352 347 348 350 350 351 349 347 341 338 345 347 344 347 350 350 351 351 351 350 350 351 351 351 350 348 349 349 350 351 349 351 352 352 352 351 351 351 352 352 351 352 351 351 351 350 349 349 348 348 349 348
352 356 354 358 362 362 365 360 359 361 364 367 364 366 366 363 363 360 359 358 358 356 354 354 351 353 355 353 353 351 352 354 354 352 352 352 352 353 353 352 353 354 353 353 354 351 347 349 351 350 350 350 348 342 339 343 344 344 349 351 351 351 351 351 351 351 352 352 351 350 350 350 350 350 349 350 351 351 352 352 352 352 352 352 351 351 351 352 351 350 350 349 350 349 349 349 348
350 356 359 364 366 364 364 360 362 365 363 365 366 366 366 363 362 361 361 359 359 357 355 353 350 355 355 352 355 353 353 354 352 352 352 352 352 351 351 352 353 354 353 354 353 350 350 351 351 351 350 351 348 343 338 338 342 348 351 352 352 351 350 351 352 351 352 353 352 351 351 351 350 348 348 350 351 350 351 351 352 353 352 352 352 351 351 352 351 350 350 349 349 349 350 350 348
352 358 361 363 368 364 360 361 365 368 367 366 367 368 366 364 364 363 363 361 359 357 356 352 350 356 354 354 356 353 352 353 352 353 352 352 352 351 351 352 352 353 353 354 353 352 352 352 351 350 350 351 348 342 338 341 346 350 351 352 352 350 350 351 352 352 353 354 352 351 351 350 349 349 350 350 350 351 350 351 352 352 352 352 351 350 350 351 350 350 349 348 348 349 349 347 345
356 362 364 364 365 359 355 360 365 368 367 365 366 368 366 365 365 364 364 362 359 359 356 352 352 354 355 357 357 353 353 353 352 353 352 353 353 353 353 352 352 353 353 355 355 354 353 352 351 350 350 350 346 342 343 346 349 350 351 352 352 351 350 352 352 352 353 353 352 350 350 350 350 351 351 351 350 350 350 351 352 352 352 352 351 351 351 350 349 350 349 349 348 347 344 341 343
359 361 363 362 358 354 353 359 365 369 368 365 365 366 366 364 365 366 363 361 359 358 354 351 354 354 355 357 355 353 352 352 352 352 351 353 355 355 352 353 354 353 352 355 356 354 353 352 352 351 351 349 346 345 347 349 349 350 351 352 353 351 352 352 352 353 352 352 352 349 347 348 350 351 351 352 351 350 350 351 351 352 352 352 351 351 351 350 349 349 349 349 347 345 341 340 344
361 364 364 362 357 357 360 361 365 369 369 366 367 366 364 364 366 366 364 361 359 357 355 354 355 354 356 356 355 353 352 352 351 350 351 352 354 353 352 353 353 353 353 355 355 355 353 352 352 351 351 349 349 349 349 349 349 350 351 352 352 351 352 353 353 352 352 351 351 348 345 346 348 350 351 351 351 350 350 350 351 351 352 352 352 351 351 351 351 350 348 346 345 344 342 341 344
363 366 366 364 361 364 365 364 365 368 369 367 366 366 364 365 365 365 364 362 360 360 358 354 352 353 356 355 353 351 351 351 350 350 351 352 352 353 352 353 354 354 354 354 355 355 354 353 353 351 349 349 350 350 349 350 350 350 351 352 352 351 351 352 353 351 351 351 350 348 346 346 348 350 351 351 352 351 351 351 351 351 352 352 352 351 351 350 350 347 345 343 343 343 341 340 343
363 365 365 365 365 367 366 366 366 366 368 367 365 365 365 364 364 362 362 363 363 361 356 351 350 353 355 354 353 350 350 352 351 351 351 352 351 352 353 352 354 354 355 354 354 355 355 354 354 351 347 348 350 350 351 351 350 350 351 352 351 351 351 351 352 351 350 351 350 348 348 349 349 349 350 351 351 351 352 352 351 351 351 351 351 352 351 349 347 344 343 342 343 341 338 339 343
361 362 364 366 363 361 363 366 365 366 367 367 365 364 364 364 363 361 362 364 363 357 353 352 350 354 354 354 354 350 350 351 350 351 350 351 351 352 354 355 354 354 354 354 355 355 354 352 353 353 349 348 349 351 351 350 351 351 351 352 352 351 351 351 351 350 351 352 351 349 350 351 350 350 350 352 350 350 351 351 352 351 351 350 350 350 348 346 344 343 343 343 342 341 339 340 343
358 360 366 367 360 357 361 365 367 369 368 366 364 363 366 364 361 362 361 362 359 355 355 355 351 352 352 351 352 348 349 351 350 351 350 350 351 352 353 354 354 354 353 353 354 354 352 352 353 353 352 352 353 353 351 350 352 351 351 351 351 351 351 351 351 351 351 352 352 351 351 351 351 351 352 352 350 349 351 352 350 351 351 350 350 348 345 343 343 344 344 344 342 341 342 342 344
355 361 368 364 360 358 361 367 368 370 368 365 364 363 368 365 362 362 360 360 360 357 357 354 351 350 349 350 350 349 350 350 350 350 349 350 351 352 353 354 355 354 354 355 355 354 353 354 354 354 354 355 354 354 352 351 353 351 349 349 351 351 351 351 351 351 352 352 352 351 351 350 351 352 352 352 351 350 351 352 350 349 350 350 351 349 346 344 343 344 344 344 342 341 343 345 346
361 366 364 360 364 362 362 368 368 369 368 366 365 364 367 367 364 362 362 362 361 358 356 354 350 348 349 350 350 349 350 349 350 350 350 352 352 354 354 354 355 355 355 356 356 355 356 356 356 354 355 356 353 352 352 350 351 352 350 349 351 351 350 351 350 350 351 351 350 350 351 351 350 351 352 352 352 350 350 351 349 348 349 348 349 348 344 342 342 343 342 341 341 341 343 345 347
364 366 361 361 366 363 360 364 363 366 367 366 366 363 365 366 365 363 364 365 361 360 358 356 352 349 350 349 350 350 349 349 349 351 352 352 353 354 354 354 355 356 356 355 356 355 355 355 356 354 354 355 351 351 351 349 351 352 350 350 352 350 349 352 352 350 351 350 348 349 350 351 351 351 352 353 351 350 348 349 349 347 347 345 344 344 342 340 342 343 345 346 346 346 346 346 346
364 362 361 361 362 360 361 363 362 364 365 366 366 364 365 365 362 362 365 365 363 363 359 356 355 351 350 349 350 350 349 350 349 351 351 351 352 352 353 354 354 356 355 355 355 354 353 355 356 353 352 352 348 349 350 350 352 352 351 349 352 351 349 352 352 350 350 351 349 350 350 349 350 351 353 351 348 348 346 345 346 346 345 344 343 343 342 342 344 348 351 351 350 350 349 349 347
360 358 360 360 358 362 362 360 362 363 363 366 366 364 366 364 361 363 364 364 364 363 357 356 354 352 350 348 349 350 349 349 349 350 350 350 350 351 352 353 355 355 354 354 354 353 352 355 355 352 351 351 348 349 349 349 350 353 351 349 350 351 350 352 352 350 349 350 351 353 352 351 351 351 353 351 348 346 346 345 345 346 347 348 349 348 347 347 346 348 351 351 349 349 348 347 346
356 356 357 355 354 361 361 359 362 362 363 366 366 366 366 363 363 362 364 366 364 361 356 353 351 351 350 349 349 350 349 349 349 349 349 349 349 350 350 351 353 353 353 352 352 353 353 355 357 352 350 351 348 349 350 349 349 351 352 351 351 351 352 353 352 351 347 347 351 353 353 353 352 352 353 352 350 348 349 350 348 347 347 350 353 354 352 352 351 350 351 351 349 347 345 343 342
359 357 352 352 350 357 358 358 360 361 364 367 365 364 364 365 366 362 364 365 362 359 355 350 350 351 351 350 349 348 348 347 349 350 349 347 348 347 349 348 350 350 351 350 350 353 352 355 356 354 352 351 350 350 351 351 349 350 351 351 351 353 353 353 353 350 346 349 353 354 353 354 354 354 354 351 351 351 351 352 351 349 349 349 350 352 352 353 352 351 351 352 349 346 345 344 342
360 356 349 352 347 351 356 357 359 360 365 366 364 362 364 367 367 362 363 362 359 358 353 350 350 352 350 349 348 347 347 348 348 349 348 347 346 346 347 347 348 348 350 348 349 352 353 355 355 354 354 352 352 351 350 349 349 349 349 350 351 352 352 352 353 350 347 350 352 353 354 354 354 354 353 351 351 352 351 351 351 351 350 348 348 348 349 351 351 350 350 350 348 347 347 345 344
360 358 349 352 347 344 353 358 358 361 364 363 362 364 364 365 364 363 363 360 358 357 353 351 350 350 349 347 347 347 347 348 347 348 347 346 346 345 346 346 348 349 348 348 349 353 353 355 354 354 354 352 352 352 349 349 349 349 349 350 351 351 351 351 352 350 349 350 350 351 354 354 354 352 352 352 351 351 350 349 350 350 348 348 348 348 349 350 350 350 350 349 349 348 348 347 346
360 357 350 353 349 341 348 358 358 361 363 361 362 365 364 361 361 364 363 358 356 354 351 350 350 349 349 347 347 347 347 347 348 347 346 345 344 344 345 346 346 347 347 346 348 352 353 354 356 355 354 353 352 350 349 349 350 350 350 350 351 349 349 351 352 352 352 352 350 351 352 354 354 352 351 352 350 348 348 348 349 349 348 348 348 349 350 350 351 350 350 350 349 350 348 348 347
353 348 351 353 347 342 344 356 359 360 361 361 363 365 364 362 362 365 360 355 354 352 352 351 350 349 348 348 347 347 347 346 347 347 345 344 344 343 344 345 346 346 346 346 349 352 353 354 355 354 354 353 351 350 350 350 349 350 351 350 348 348 349 350 350 352 354 354 354 354 351 352 352 351 351 351 350 349 348 348 349 349 349 350 349 349 350 351 353 353 352 351 350 351 349 349 347
347 346 350 347 344 344 342 353 359 359 360 360 363 364 364 361 362 365 359 354 353 351 351 350 350 349 347 347 346 347 348 345 346 346 344 344 343 343 344 344 345 345 345 346 349 351 352 353 354 355 354 353 352 352 351 350 351 351 350 349 350 349 349 349 348 351 354 355 357 356 353 352 350 350 350 351 351 350 349 349 350 350 351 351 351 352 351 352 354 354 353 353 351 351 350 349 348
346 346 347 346 345 342 345 357 359 361 364 362 362 363 366 365 363 363 359 355 355 353 351 351 350 349 347 346 345 346 347 346 345 344 344 344 343 345 343 343 344 343 345 346 348 349 349 352 354 354 354 353 354 354 352 352 352 351 350 352 352 350 350 349 350 352 354 355 356 356 354 353 352 351 352 352 352 351 351 350 350 351 352 353 353 353 351 352 354 354 354 353 351 351 349 348 350
345 346 346 345 342 340 352 360 358 362 362 362 362 360 363 368 365 361 359 357 357 353 351 351 350 349 347 346 346 346 346 346 345 344 344 343 344 344 343 343 343 343 347 347 347 347 348 351 354 353 353 354 354 353 353 353 352 352 352 353 353 351 350 351 352 354 355 356 356 356 354 353 352 354 354 352 353 353 353 352 352 353 353 353 352 351 352 352 352 353 352 352 352 351 349 348 349
343 345 345 343 333 336 353 357 359 364 358 360 361 356 359 365 364 362 360 359 359 354 352 351 349 348 347 346 346 346 345 346 345 344 344 343 343 344 343 342 342 343 347 346 346 346 348 351 352 353 353 353 354 353 353 352 352 353 353 353 352 352 352 351 353 354 356 356 356 356 355 354 354 356 356 353 352 354 353 353 353 354 354 353 352 352 353 354 352 351 351 351 352 351 351 350 350
343 337 332 339 331 334 355 353 357 366 359 363 358 355 361 364 362 361 360 360 360 356 353 352 350 348 348 347 346 345 344 345 345 345 345 343 344 344 343 343 342 344 345 345 346 347 349 350 351 352 351 352 354 353 353 352 352 353 352 352 352 352 352 352 353 354 355 355 356 357 356 357 356 355 358 354 351 353 353 353 354 354 355 354 354 353 353 354 353 351 353 353 352 350 350 351 351
338 336 324 332 331 331 351 355 355 360 362 364 355 356 363 364 362 360 360 360 361 362 357 353 353 349 348 348 345 345 346 346 344 344 345 343 344 344 343 344 343 344 345 345 346 347 349 349 350 350 351 353 354 354 353 353 352 352 352 352 352 352 352 352 353 353 353 353 355 356 356 358 356 354 357 355 352 353 353 354 355 355 353 353 355 354 352 353 353 353 355 355 355 353 352 352 351
327 332 326 331 334 331 343 353 356 353 357 360 356 359 362 362 362 361 360 361 363 364 360 358 356 350 351 349 346 346 346 346 345 345 346 344 344 345 343 344 343 344 344 345 347 348 348 349 349 349 350 353 354 355 355 354 354 352 351 352 353 352 351 351 352 353 353 353 355 357 357 356 355 355 357 356 354 353 353 353 356 356 351 352 355 353 352 353 353 352 354 356 356 354 352 351 351
321 324 322 326 332 330 338 348 353 353 354 357 355 359 363 362 363 360 360 361 364 364 359 358 359 352 351 350 347 347 346 345 345 345 345 344 345 345 344 345 345 344 345 345 347 348 347 348 349 349 351 353 355 356 355 355 355 352 352 353 353 352 351 352 351 352 354 354 356 358 358 355 353 354 356 357 355 354 355 354 355 356 353 355 355 352 353 355 355 355 355 355 355 354 354 353 352
327 327 326 323 324 327 338 349 349 351 352 354 354 355 362 363 362 362 359 360 364 363 361 360 361 359 355 351 348 349 347 346 346 346 345 344 345 345 344 345 345 345 345 346 347 348 346 348 350 349 351 353 355 355 355 356 355 353 353 354 355 354 353 352 352 353 353 355 357 358 356 352 351 354 354 355 357 355 356 356 355 354 354 355 355 351 353 356 357 357 357 355 354 355 354 352 352
331 331 328 325 324 324 338 351 347 350 350 352 355 356 360 361 361 362 359 359 362 362 362 360 359 360 360 356 349 349 349 346 347 347 345 345 345 345 345 344 345 345 346 345 346 348 347 349 351 350 351 353 355 355 355 355 354 353 353 353 355 355 354 352 352 352 354 356 357 358 357 352 351 356 357 357 358 356 356 358 356 355 355 355 355 353 354 355 356 357 358 356 355 356 353 351 352
331 329 325 324 324 325 342 355 347 350 351 348 354 356 357 360 359 361 360 360 361 362 367 363 359 360 361 360 353 350 349 346 347 346 347 346 345 346 345 345 345 345 347 346 347 349 347 350 351 351 352 353 354 354 354 354 354 354 353 353 354 355 355 353 352 352 354 356 355 357 360 357 355 358 357 357 358 357 357 358 356 355 356 356 357 356 356 357 357 357 358 358 357 355 354 352 351
329 328 324 321 326 328 338 351 348 348 348 346 354 353 352 359 359 359 361 360 360 363 367 366 361 359 360 359 358 351 349 348 347 346 346 345 346 347 345 346 346 345 348 347 347 349 349 350 352 351 353 353 353 353 353 353 353 353 353 351 351 353 354 353 352 352 355 357 355 358 359 357 357 359 356 353 356 358 358 358 355 356 357 356 358 358 357 358 358 358 358 358 356 355 355 354 352
329 327 322 320 329 327 323 334 343 343 346 349 350 349 351 356 357 358 358 358 359 360 362 363 364 364 360 358 358 353 350 351 349 345 346 345 346 347 345 346 347 346 349 348 348 349 350 351 352 352 353 353 353 353 353 354 353 353 352 351 351 353 353 353 353 352 356 357 357 359 359 355 358 360 357 353 356 359 359 359 357 358 357 355 356 355 355 357 358 359 358 356 355 354 355 353 352
329 331 326 323 329 329 325 331 338 335 342 351 347 340 344 353 356 357 356 356 359 358 359 361 364 368 364 359 357 356 353 352 350 347 346 347 346 346 346 346 347 347 348 348 349 350 351 352 353 352 353 353 353 353 354 354 353 354 355 353 352 353 352 353 354 352 354 356 357 358 359 358 358 359 358 357 357 358 359 360 358 358 358 355 354 355 355 356 358 357 355 354 354 354 355 354 353
323 330 334 331 333 334 331 332 331 323 326 342 345 330 332 347 352 355 355 356 358 358 361 361 361 363 361 361 358 356 356 351 351 349 347 347 346 347 347 346 346 347 348 349 350 350 351 353 353 353 354 353 354 354 354 354 355 357 359 356 356 355 354 355 355 353 354 355 356 357 359 359 357 357 358 358 358 358 360 361 358 358 360 357 356 357 357 356 355 356 354 356 356 355 357 357 355
318 328 336 337 337 334 330 330 325 315 317 336 341 325 324 338 345 351 353 354 360 360 361 362 361 359 359 362 360 356 356 353 351 350 347 347 348 348 348 347 346 348 348 349 349 350 351 354 355 354 354 354 355 355 354 355 356 359 361 359 358 357 357 356 355 353 354 355 354 356 357 358 356 357 357 358 359 359 360 361 359 359 359 358 357 357 357 354 355 356 356 357 357 357 359 357 355
320 330 334 334 336 333 331 330 323 320 321 328 333 324 322 330 340 348 350 350 359 361 358 360 361 358 357 359 359 357 357 354 352 351 349 348 348 348 349 347 347 347 347 348 348 349 351 354 355 355 354 354 356 356 356 356 357 359 359 358 358 357 357 356 354 354 353 353 354 355 356 357 356 357 357 358 360 357 358 360 360 358 359 358 358 358 357 355 356 358 358 358 357 357 359 358 356
327 331 330 331 333 331 332 330 323 324 321 316 324 323 321 325 335 345 353 351 355 357 354 359 361 359 357 357 358 358 358 354 352 351 350 349 349 348 350 349 346 346 348 347 348 349 351 355 356 356 355 355 356 357 357 358 358 358 357 356 356 356 355 355 354 353 352 353 354 354 356 356 356 358 357 359 361 359 358 361 360 359 359 358 357 357 357 356 357 358 359 360 359 358 359 359 357
329 328 329 330 331 329 331 332 322 321 319 313 319 318 317 322 330 337 346 346 352 357 356 359 359 357 358 358 357 359 360 359 355 353 352 352 350 350 351 351 347 345 346 347 347 349 352 356 357 358 357 355 357 357 357 359 359 358 356 354 356 354 353 354 353 353 352 353 354 354 356 356 356 358 358 359 361 361 360 360 361 360 360 358 357 356 357 358 358 358 359 358 358 359 359 358 358
328 327 330 328 329 329 329 331 323 319 316 315 317 317 318 322 327 333 340 345 352 358 357 357 358 356 356 356 356 357 360 361 358 355 355 354 352 351 352 353 349 346 346 346 348 350 352 356 358 358 357 356 357 358 358 361 359 358 356 354 355 354 353 352 353 354 353 355 355 356 356 357 356 357 358 359 361 361 361 360 360 359 358 357 357 358 358 358 358 358 359 358 358 359 359 359 358
327 328 328 323 322 323 321 321 320 318 316 315 318 320 316 316 325 338 345 348 350 353 357 357 355 356 357 355 355 357 359 359 357 357 355 353 353 352 352 354 352 348 347 346 347 349 352 356 358 359 358 357 358 359 360 360 359 358 356 355 355 355 354 353 354 355 356 357 357 357 357 357 356 356 357 360 359 359 361 360 359 358 356 357 358 358 358 357 356 358 359 359 359 358 359 361 358
329 326 321 316 316 318 318 316 316 317 316 317 319 319 317 320 331 345 349 349 348 350 357 356 354 354 356 355 355 358 358 356 355 357 355 353 353 353 353 353 352 351 348 347 347 349 352 358 360 360 359 357 359 361 360 360 358 357 356 356 356 356 356 354 355 355 356 358 357 356 357 357 357 356 356 358 357 358 360 359 359 359 359 359 360 358 359 359 357 357 359 360 361 359 359 361 358
328 322 317 314 316 317 318 316 316 317 315 318 320 319 320 326 339 349 349 347 349 349 352 354 353 353 356 355 355 358 358 355 355 356 355 355 354 354 354 354 353 353 349 347 348 349 352 358 361 362 360 359 359 362 362 359 357 356 357 356 356 358 357 356 357 356 357 358 357 357 357 357 357 358 356 357 356 356 359 359 360 361 361 362 361 359 360 361 358 357 358 359 360 359 359 360 359
328 328 323 317 316 316 316 314 315 315 314 316 318 317 320 326 339 347 348 346 347 347 346 350 350 352 354 353 353 357 358 356 355 355 355 356 356 354 354 353 353 352 351 350 350 351 354 359 362 362 362 361 361 361 362 360 357 356 357 357 357 357 357 357 357 357 357 358 356 356 356 356 357 357 356 357 356 355 358 359 359 361 362 362 362 360 361 362 360 357 358 358 359 358 359 361 360
327 330 324 317 319 319 313 313 314 313 313 313 315 320 327 336 345 349 348 346 347 348 346 348 350 352 354 352 354 357 356 356 355 355 356 357 359 357 354 354 354 353 353 354 353 352 354 356 361 363 363 362 361 362 363 361 358 355 355 357 358 358 358 358 357 356 355 355 356 355 355 356 356 356 355 356 357 357 357 358 359 360 361 361 362 361 361 361 359 359 359 359 360 360 360 361 360
324 324 319 320 328 323 312 312 313 311 312 312 317 326 334 339 345 348 349 349 348 348 348 348 351 351 353 355 356 356 355 355 356 356 356 356 357 357 355 354 354 354 356 356 355 353 352 355 359 363 364 363 362 363 363 362 359 356 355 356 357 358 358 357 357 355 353 353 353 354 355 356 355 354 354 355 357 358 358 359 360 359 359 361 362 362 361 361 360 361 361 360 360 360 361 361 360
322 318 321 325 328 325 317 313 312 312 312 310 318 327 328 332 341 348 351 353 352 352 350 349 351 352 354 356 356 356 355 354 355 356 356 356 355 356 356 355 354 354 357 357 356 354 352 355 359 362 362 363 362 363 363 362 360 357 355 356 356 357 357 356 355 355 353 351 351 352 353 355 355 355 355 354 355 357 358 359 359 358 358 360 360 361 361 361 361 362 361 361 361 360 360 362 362
323 320 325 323 317 317 316 314 314 314 312 309 317 326 324 327 337 343 348 354 354 355 350 349 351 352 354 355 355 356 356 354 356 355 355 355 355 356 356 356 356 356 357 357 355 355 354 356 360 360 358 361 362 363 363 362 361 359 358 357 356 356 356 355 354 354 353 351 351 352 352 352 354 354 354 354 355 356 358 358 358 357 357 358 359 359 360 360 361 361 360 360 360 359 359 360 361
324 322 325 324 318 316 315 315 315 314 314 311 315 324 324 328 341 345 348 353 352 351 351 349 351 350 351 352 353 355 356 356 357 357 357 356 357 357 355 359 361 357 355 355 354 355 355 356 358 357 357 362 363 360 360 362 362 360 359 359 357 356 356 354 353 353 353 351 350 352 352 351 351 352 352 352 354 356 358 358 358 358 357 357 357 358 358 358 360 360 360 358 357 357 357 358 358
320 318 319 319 320 320 317 316 314 313 315 312 312 322 327 333 346 348 346 349 347 347 349 349 349 349 349 350 351 353 354 355 355 356 356 357 359 359 359 362 361 355 353 353 352 354 354 354 357 358 359 360 361 360 359 360 362 361 359 360 359 357 356 355 353 352 352 351 350 350 351 350 349 350 350 350 352 354 356 357 358 357 356 355 356 357 357 357 357 359 358 357 355 355 356 358 358
320 317 317 319 318 316 314 314 314 313 315 312 315 325 330 336 344 345 342 344 345 344 346 348 350 348 348 349 350 351 353 354 355 354 353 356 359 360 359 362 361 358 355 353 351 352 353 354 355 358 358 357 358 361 360 359 360 359 358 359 361 359 357 355 354 353 351 351 350 351 350 350 349 348 348 349 351 352 353 356 357 357 356 354 353 355 355 355 356 357 358 357 355 354 355 357 358
Wind_Speed
11 10 11 8 9 10 9 4 1 2 3 3 1 1 1 3 6 8 7 4 2 1 2 7 9 8 9 11 11 11 10 5 4 5 6 12 25 28 24 28 28 27 26 23 23 21 20 19 19 19 18 18 16 16 16 16 15 15 14 13 11 10 11 12 11 11 12 14 14 13 15 16 15 14 14 13 14 14 14 15 15 15 16 16 16 16 15 17 19 21 20 19 18 18 18 17 16
13 10 12 12 12 9 2 0 2 1 2 3 1 1 2 0 6 9 7 6 5 5 6 9 10 10 12 13 13 16 14 12 15 11 11 24 28 26 29 29 27 28 26 24 24 22 20 19 20 19 18 18 18 18 17 16 15 15 14 12 10 10 11 11 10 11 13 15 15 14 15 15 15 14 14 13 14 15 14 15 15 15 16 16 17 17 16 17 19 21 20 19 18 18 20 18 17
11 9 12 10 6 5 0 1 3 1 1 1 1 2 3 2 7 7 6 10 11 11 11 11 9 8 12 15 14 16 13 14 21 16 14 26 22 24 32 29 28 27 25 24 23 22 21 20 19 19 20 20 19 18 17 16 15 14 13 11 10 11 11 10 11 12 13 15 15 15 14 14 14 14 14 13 14 15 14 14 14 15 16 16 17 18 18 17 17 19 20 19 18 19 21 20 18
12 9 10 6 0 3 0 2 2 1 1 0 2 3 4 6 9 8 7 9 12 12 11 10 8 6 12 17 14 14 14 14 20 18 13 20 21 28 33 29 29 26 25 24 22 23 22 22 21 21 21 20 19 18 18 17 15 14 12 10 10 11 11 10 11 12 14 15 15 14 13 14 14 13 14 14 15 14 14 14 14 15 15 16 17 18 19 18 18 19 20 19 19 20 22 21 19
13 11 7 3 1 1 1 2 1 2 2 1 2 4 4 7 9 9 7 7 11 11 9 9 9 10 13 13 10 10 13 14 18 20 17 22 26 30 31 29 28 27 26 23 23 24 24 24 22 21 21 19 18 18 18 17 15 13 11 10 11 11 12 11 11 13 15 15 14 13 13 14 14 14 14 14 15 15 14 15 15 16 16 15 16 18 19 19 18 20 20 19 18 20 22 21 20
13 13 7 2 1 1 1 2 1 3 3 2 2 5 5 8 9 9 10 10 11 10 9 10 12 13 12 12 10 10 14 15 15 20 23 28 30 29 29 27 27 26 25 24 23 24 26 25 22 21 19 18 18 18 17 15 14 12 10 10 11 12 12 12 12 14 14 14 14 13 14 14 15 14 14 15 16 15 15 15 15 16 16 16 17 18 19 19 20 20 21 20 19 20 22 21 21
11 8 4 2 0 1 2 2 2 3 1 1 3 8 7 7 9 11 12 12 10 9 10 11 13 13 11 11 11 13 18 19 17 21 27 31 31 29 28 26 26 26 25 24 24 26 26 24 22 21 19 18 17 17 16 14 14 11 10 11 11 12 12 12 12 13 14 15 14 14 15 15 15 14 14 15 16 15 15 15 15 16 16 17 17 18 19 20 21 21 21 20 20 20 20 19 19
10 2 1 0 1 2 2 3 3 2 1 0 3 8 8 8 8 11 10 9 9 9 10 11 14 13 13 13 11 13 20 22 24 28 31 32 31 29 27 26 27 25 25 24 25 26 25 23 21 19 19 18 17 17 16 15 13 11 11 12 12 12 12 12 12 12 14 15 14 15 15 15 14 14 15 16 16 16 16 16 16 16 16 17 17 18 19 20 21 21 21 21 20 20 18 17 17
6 1 1 1 2 3 2 2 1 1 1 1 4 7 6 4 5 9 10 9 9 9 10 12 14 14 15 15 13 12 18 26 31 32 31 30 28 27 26 25 26 26 25 25 26 25 22 21 20 19 18 17 17 17 15 15 13 11 12 12 11 12 12 12 12 12 14 14 14 15 15 15 15 16 17 16 16 17 16 16 16 16 17 17 17 19 20 20 20 21 21 21 21 19 18 17 18
1 2 0 2 2 4 3 1 1 1 1 1 4 6 5 3 4 7 9 11 10 9 12 13 15 16 16 15 12 12 20 29 32 31 29 28 26 25 26 25 26 27 26 25 25 24 22 21 19 18 18 17 17 16 15 14 12 11 11 12 11 12 12 12 13 13 13 14 14 15 15 15 15 15 15 16 17 17 17 17 16 16 17 17 17 18 19 20 20 20 20 20 20 19 19 19 20
1 1 1 2 3 3 2 2 2 1 2 4 3 2 5 3 2 5 7 11 9 10 14 14 15 16 16 14 10 15 25 29 30 30 29 27 25 24 25 25 26 26 26 25 24 24 23 20 19 18 17 17 16 15 14 12 11 10 11 12 12 12 12 12 12 13 13 14 14 15 15 15 15 15 15 15 16 16 17 17 17 17 17 17 18 18 19 20 20 20 19 19 20 20 20 20 19
2 1 1 3 2 3 2 2 4 4 5 6 4 0 4 3 2 5 9 10 8 11 12 10 13 14 15 13 9 17 25 26 27 29 28 26 24 23 24 25 25 25 25 25 24 24 23 21 19 18 17 16 16 15 13 12 11 10 12 12 12 12 12 12 12 13 14 14 15 15 16 17 16 16 16 15 15 16 17 17 17 17 17 17 18 18 19 19 18 19 19 19 21 21 20 19 19
1 1 2 2 1 1 0 3 4 5 4 4 3 1 3 4 3 5 7 8 4 8 10 10 14 13 14 13 10 15 20 24 27 27 28 25 23 22 23 24 24 24 24 24 24 24 23 22 19 18 17 16 15 14 12 12 12 11 12 12 12 12 13 12 12 13 14 15 16 15 16 17 17 17 16 15 15 15 16 16 16 17 17 17 18 18 18 19 18 18 19 20 21 22 20 19 20
2 1 2 2 2 1 2 3 3 3 2 3 3 2 2 3 5 5 7 8 3 4 9 11 14 14 13 13 11 11 16 24 26 26 27 24 23 23 22 24 24 23 23 23 23 23 22 20 19 18 17 15 15 14 13 13 13 13 12 12 12 12 13 12 13 14 15 16 16 15 15 16 16 16 16 15 14 15 15 16 16 17 17 18 18 18 18 18 18 18 19 21 22 22 21 21 21
3 1 1 2 3 0 3 3 3 3 2 3 3 3 3 4 4 6 6 5 5 5 6 11 12 10 12 14 12 12 20 27 25 25 26 24 24 23 23 23 23 23 22 22 22 22 21 20 19 18 16 15 14 13 13 13 13 13 11 11 12 12 13 13 13 15 15 16 15 15 15 15 15 16 15 14 14 15 15 15 16 16 17 17 17 17 17 18 18 19 20 21 21 21 22 22 23
2 2 0 1 3 2 3 3 3 3 3 4 3 2 6 6 4 6 3 3 5 8 4 9 9 9 13 14 16 21 26 27 25 25 26 25 24 23 23 21 21 22 21 21 21 20 21 21 19 18 16 15 13 13 14 13 12 12 11 10 12 13 13 13 13 15 15 15 15 15 15 15 15 15 14 13 14 14 14 15 15 16 16 16 16 16 17 19 19 19 20 20 20 21 22 23 23
3 1 2 0 1 2 4 3 3 3 5 5 4 3 6 7 4 4 3 5 3 8 5 6 7 12 15 16 23 29 28 26 26 25 25 25 23 21 21 20 19 20 19 19 19 20 20 20 20 18 17 15 15 15 14 12 12 12 11 11 12 12 13 13 13 14 14 14 15 15 15 15 14 14 13 12 13 14 14 14 15 15 15 15 15 15 17 19 19 19 19 19 20 20 21 21 21
3 1 2 0 1 1 4 5 5 5 7 6 4 3 5 7 4 2 3 2 2 6 6 4 8 14 17 22 28 29 28 27 26 25 23 22 20 17 18 19 18 18 18 18 18 19 20 20 20 19 17 16 15 15 14 14 13 12 11 10 10 12 13 12 12 13 13 13 15 15 15 14 14 15 13 12 12 13 14 14 15 15 15 15 16 17 18 20 20 19 19 19 20 20 20 19 18
2 2 2 0 1 2 5 9 9 8 10 8 6 4 4 7 5 1 3 6 5 7 6 3 10 18 20 25 28 27 27 27 26 24 23 21 20 19 17 17 18 18 17 17 18 17 20 21 18 19 19 16 16 16 14 14 14 14 12 10 9 11 14 12 11 12 12 12 14 15 14 14 14 14 13 12 13 13 14 14 15 16 16 17 18 19 19 19 19 18 18 18 17 18 17 15 15
3 3 2 1 6 7 6 11 12 11 12 11 8 4 4 7 5 3 6 8 5 7 6 6 13 21 21 23 24 26 26 25 25 23 22 21 21 21 19 18 18 18 18 18 18 18 22 22 17 20 19 17 18 17 15 15 14 14 12 10 9 11 13 12 10 11 11 12 13 13 13 14 14 13 13 13 14 14 15 17 17 18 18 18 18 17 16 16 16 15 14 13 13 13 12 10 9
2 3 2 4 7 9 7 11 13 13 12 12 10 6 6 7 5 5 8 7 3 5 7 9 18 22 22 22 22 24 23 23 23 21 21 20 20 20 19 19 18 18 19 19 19 20 24 22 19 20 19 18 19 17 16 16 14 13 12 12 12 13 13 12 12 11 12 12 12 11 11 14 14 13 14 13 14 15 16 17 17 17 17 15 14 12 12 11 11 11 10 10 10 9 10 10 8
2 4 6 8 3 10 12 13 15 14 10 11 11 8 7 5 4 6 8 6 3 6 11 13 19 21 22 22 21 21 21 20 20 20 20 19 19 19 19 20 20 20 19 18 20 23 25 24 21 19 18 18 19 17 15 15 14 15 13 12 13 13 13 12 12 13 14 14 12 11 12 13 13 12 13 12 12 14 13 12 12 13 12 11 10 8 8 8 6 6 5 5 5 6 8 8 9
5 4 6 12 5 11 16 15 16 16 12 10 10 8 7 5 5 6 6 6 5 8 11 17 19 20 23 22 21 20 19 19 19 20 19 20 20 19 20 20 20 20 19 18 20 25 26 25 23 20 18 17 17 16 15 14 13 15 14 14 15 14 14 13 12 15 16 15 12 12 12 12 12 11 12 12 12 12 10 9 9 9 9 8 10 9 8 9 7 6 5 4 5 8 9 9 10
9 5 4 11 6 8 15 17 17 17 14 9 8 8 7 5 6 6 5 6 8 8 8 17 18 20 23 20 19 19 19 19 19 20 19 19 19 20 20 19 20 19 18 18 19 23 25 25 24 23 20 18 16 14 14 14 13 14 13 14 16 16 16 14 13 17 17 15 15 14 12 11 11 12 12 11 10 11 10 8 7 7 6 7 9 10 9 9 8 8 7 6 8 10 10 10 10
11 7 2 9 5 6 11 17 18 16 13 8 10 10 7 7 6 5 5 7 10 8 9 17 19 19 20 19 20 19 18 19 19 19 19 17 19 20 19 19 20 19 19 19 18 20 22 24 23 22 22 20 18 15 14 14 13 14 13 13 16 16 16 15 15 18 17 16 16 15 13 11 11 12 13 10 9 11 11 9 8 6 6 7 8 8 9 9 7 7 7 7 9 10 9 10 10
10 8 2 9 7 3 8 17 19 15 12 10 12 11 7 7 6 4 6 9 12 11 13 17 19 19 18 18 19 18 17 18 19 19 18 17 19 19 19 18 19 18 18 19 19 19 20 22 22 22 23 23 21 17 15 15 14 14 14 14 16 17 17 16 16 16 15 14 14 13 12 13 12 12 13 12 11 11 11 10 9 7 6 8 8 7 7 7 6 5 6 6 7 8 8 9 9
7 9 7 10 7 0 3 15 19 14 12 13 11 9 7 7 6 4 6 10 13 14 16 18 18 18 18 18 17 16 16 18 19 18 17 18 18 18 18 18 18 18 18 19 19 18 18 20 20 21 22 23 23 21 19 17 14 14 13 12 13 16 18 16 15 15 14 12 11 10 10 12 12 11 12 12 11 11 11 11 10 10 8 7 7 8 7 5 4 5 5 5 6 7 7 8 8
7 8 6 9 7 4 3 12 19 13 10 11 11 6 6 6 5 5 8 10 12 14 17 18 17 17 17 18 17 14 14 18 19 18 16 17 17 17 18 17 18 19 18 19 19 18 18 18 19 19 19 20 23 24 24 22 19 18 15 13 12 14 16 16 17 16 13 12 11 9 10 11 11 12 12 12 11 10 10 10 9 10 9 7 7 8 7 5 5 5 6 5 6 7 6 7 7
7 7 6 8 9 7 6 12 18 14 8 12 13 6 4 5 6 7 10 8 10 15 18 18 17 16 16 17 15 13 14 18 18 17 16 16 16 17 17 17 18 18 18 19 19 18 19 18 18 18 17 18 19 21 23 24 24 23 21 19 17 16 16 16 16 16 13 12 11 10 11 12 13 13 12 11 11 10 11 10 8 8 8 8 7 8 8 8 6 5 5 4 5 5 6 6 6
6 8 7 7 7 6 9 16 21 16 7 11 11 4 3 6 6 7 8 6 11 15 17 16 16 15 15 15 13 13 14 15 15 17 17 16 16 16 17 18 18 18 18 19 18 19 19 17 17 17 17 16 17 17 18 19 20 21 21 21 20 19 20 17 16 15 14 13 12 11 12 12 13 12 11 10 10 10 10 10 9 9 9 8 7 8 7 6 5 4 3 3 3 3 5 6 5
6 8 6 5 4 5 11 16 22 15 6 12 8 3 3 5 6 5 3 3 9 14 16 15 15 14 14 14 14 13 14 15 16 18 18 17 16 16 17 18 18 17 18 18 18 18 18 17 16 16 17 16 16 16 16 16 16 16 17 17 16 17 18 17 15 15 14 14 13 13 12 12 12 12 11 10 10 10 9 9 10 10 8 7 7 7 7 5 4 4 4 3 2 3 5 6 5
7 7 5 5 4 3 9 13 19 16 11 15 9 4 4 6 7 5 2 5 7 10 14 15 15 15 15 13 13 13 13 16 18 19 19 18 17 16 17 17 18 18 18 18 18 18 18 17 16 17 17 16 16 16 15 15 15 15 15 15 14 14 15 14 14 14 14 14 13 13 13 12 12 13 12 11 10 9 9 10 10 9 8 8 7 6 7 6 4 3 4 3 3 4 5 5 5
7 7 6 5 5 4 4 5 11 16 12 12 9 4 5 7 10 9 7 7 1 2 8 11 13 15 16 13 13 13 13 15 16 18 20 19 18 17 17 17 17 18 18 19 18 18 18 17 16 17 17 16 16 16 16 15 15 15 15 14 14 14 14 14 14 13 14 14 13 13 13 12 13 13 12 11 10 9 9 10 9 7 8 9 7 5 6 7 5 3 3 4 2 2 2 4 5
7 7 6 6 7 7 4 2 6 12 9 7 7 7 7 8 10 11 9 6 5 3 4 4 8 13 15 12 13 13 13 13 13 17 21 19 18 18 18 17 17 17 18 19 18 18 18 17 16 17 17 17 16 16 16 15 15 15 14 14 13 13 14 13 14 13 14 14 13 13 12 12 13 13 12 10 10 10 9 10 9 7 8 8 7 6 7 6 6 4 3 3 2 2 2 3 4
8 8 7 6 8 8 8 10 10 11 9 8 6 7 11 9 8 9 8 7 6 6 5 5 9 12 14 13 13 14 14 13 13 17 21 20 19 19 19 18 17 17 18 19 18 18 18 16 16 18 17 17 16 16 16 15 15 14 14 13 12 13 13 13 14 14 14 13 13 13 12 12 12 12 12 10 10 10 9 9 8 7 8 7 6 7 6 5 5 5 3 1 1 3 4 3 4
11 9 8 7 7 9 9 12 13 12 10 8 6 7 12 12 10 9 7 8 6 5 6 4 5 5 8 12 13 13 14 14 15 19 21 20 19 19 19 19 18 17 19 20 18 18 18 16 17 18 17 17 17 16 15 15 14 14 14 13 12 12 13 14 14 14 14 14 13 13 12 12 12 12 11 10 10 9 9 9 8 7 7 5 5 6 4 3 5 5 3 2 1 2 2 1 3
16 10 8 7 7 9 7 14 13 11 7 5 5 6 10 11 12 13 9 9 8 6 6 5 2 4 6 9 13 15 14 14 17 20 20 20 19 20 20 19 19 18 19 20 18 18 18 17 18 18 17 17 17 16 15 15 14 14 14 14 12 12 13 14 14 14 14 14 14 13 11 11 12 11 10 8 9 9 9 9 8 7 7 6 7 6 5 5 4 4 3 2 1 1 1 1 2
17 12 9 7 7 7 8 18 14 10 7 5 7 8 8 9 10 13 13 11 10 8 6 6 8 8 7 7 11 15 13 13 17 18 20 21 20 21 20 19 20 19 20 21 19 19 18 17 18 18 18 17 16 16 15 15 14 14 14 14 13 12 12 14 15 15 14 14 15 14 12 11 12 12 10 9 9 9 9 9 9 9 7 6 6 5 5 5 3 3 3 1 0 1 1 1 3
15 11 8 7 6 7 9 18 18 12 7 7 11 9 7 10 10 12 14 12 10 10 9 8 9 11 9 7 9 13 14 14 16 16 18 21 21 21 21 19 20 20 21 21 19 19 19 19 19 18 18 17 15 16 15 14 14 13 13 13 13 13 12 13 15 16 15 14 14 14 13 13 12 11 10 10 10 9 8 8 8 8 7 6 6 5 5 4 3 3 2 1 1 0 1 2 3
12 9 7 7 7 8 5 10 15 11 9 11 13 9 6 9 11 12 13 12 11 11 12 9 7 5 5 7 8 10 13 13 15 16 17 19 21 21 20 20 20 20 20 20 20 20 19 19 20 18 18 17 16 16 15 14 14 13 11 11 12 12 13 13 14 15 15 14 14 13 13 13 12 11 11 10 10 8 9 9 8 8 7 7 7 6 6 5 4 4 3 2 1 2 1 1 3
10 10 8 7 9 8 3 8 8 8 11 15 12 7 5 8 10 10 11 12 12 12 13 9 6 3 2 5 5 4 9 12 13 16 16 18 20 21 21 20 20 21 21 21 21 20 19 20 20 18 18 17 17 17 15 14 15 13 11 11 11 12 13 14 15 15 16 15 14 13 13 13 12 12 11 10 10 9 9 9 9 9 7 7 7 5 5 6 4 4 4 3 2 2 2 1 2
9 10 11 10 11 10 8 10 7 6 7 16 15 5 4 10 11 10 10 12 13 13 14 11 7 7 3 6 5 6 9 11 12 15 16 17 20 21 21 21 21 21 21 21 22 20 19 21 21 19 18 17 17 17 16 16 16 14 12 13 12 13 13 13 14 15 16 15 14 14 13 13 12 11 11 10 10 10 9 8 9 10 9 8 8 6 4 5 5 5 4 3 3 3 3 2 3
7 9 13 14 14 13 7 3 6 6 4 13 17 6 3 9 11 12 13 15 16 14 15 15 10 8 6 5 7 8 9 11 13 15 16 17 19 21 21 21 22 21 21 21 21 21 20 22 22 20 19 18 18 19 17 17 17 14 13 13 12 13 12 12 12 13 14 13 13 15 14 13 13 12 12 10 10 11 10 9 8 9 10 8 6 5 4 4 5 5 3 3 4 4 3 2 4
7 8 14 16 16 15 8 6 7 7 7 7 13 8 2 6 9 13 14 13 17 15 14 15 13 12 10 8 11 11 10 12 13 13 15 17 19 20 20 21 21 21 22 22 22 22 23 24 23 21 20 18 18 20 18 17 17 16 14 13 12 12 11 11 11 11 12 13 14 15 14 14 13 12 12 11 11 11 10 10 9 8 9 8 6 5 4 5 7 6 3 4 4 3 3 3 4
10 9 9 13 17 15 7 7 9 8 7 5 10 9 3 6 9 12 11 11 12 13 14 12 12 15 15 14 16 14 12 12 13 13 14 16 19 21 21 21 21 21 22 22 21 23 23 25 24 22 21 20 19 21 20 18 17 16 15 13 12 11 10 11 10 10 12 12 14 14 13 14 12 11 12 12 11 11 10 10 9 7 7 7 6 5 5 5 6 6 4 5 4 3 3 2 3
11 11 10 10 14 12 7 7 7 5 6 7 9 10 5 5 10 11 10 11 8 8 10 10 11 13 16 18 16 14 12 10 11 13 12 12 17 22 23 21 21 21 22 22 22 22 23 24 24 23 22 21 21 22 21 19 18 17 16 14 13 12 11 12 10 10 11 11 13 13 13 14 13 11 12 12 11 11 10 9 8 7 6 7 6 5 6 5 5 5 4 4 4 3 3 2 1
12 11 8 9 9 9 8 8 6 5 7 9 11 11 8 6 7 9 7 9 10 9 8 8 10 10 11 14 14 13 12 9 9 10 10 12 15 20 21 21 20 20 22 23 22 23 23 24 24 24 23 22 22 23 22 20 19 18 17 15 14 14 12 13 12 10 10 11 11 11 11 13 13 12 11 12 12 11 10 9 8 7 6 6 6 4 5 5 5 6 5 4 4 3 4 3 1
11 8 6 6 3 3 5 6 6 6 7 9 12 12 10 5 6 9 9 10 10 9 9 7 9 12 12 12 13 13 12 11 10 8 10 14 13 15 19 20 20 20 23 24 23 24 24 24 25 24 23 23 23 24 23 21 20 19 18 16 15 15 14 13 14 12 11 11 11 11 11 11 11 12 12 12 11 11 11 9 9 8 7 6 7 5 5 4 5 6 6 5 4 4 3 2 2
9 8 6 7 4 3 4 6 7 7 8 10 12 12 7 1 7 11 12 13 11 9 12 11 11 13 14 13 13 12 11 12 12 10 11 12 11 13 18 19 18 19 21 24 23 23 24 24 26 26 25 24 24 24 23 22 21 19 20 18 16 16 15 14 14 13 13 12 11 12 12 11 11 11 12 12 11 12 12 10 9 9 8 7 7 7 5 4 5 7 6 4 4 4 4 3 2
9 9 7 7 6 6 7 8 7 7 9 13 14 11 5 5 10 11 11 13 12 10 13 14 14 14 14 14 13 11 11 12 12 10 10 10 11 15 17 18 19 18 19 24 23 24 26 25 26 26 25 25 24 24 24 23 22 20 20 20 18 17 16 15 14 14 13 13 13 12 12 12 11 10 11 11 11 12 12 11 10 9 9 8 7 7 6 5 5 5 5 3 4 4 3 3 2
9 9 7 7 7 7 8 7 7 8 9 12 15 9 7 7 7 9 9 11 12 9 10 11 11 12 14 13 12 11 11 11 10 10 10 9 10 14 16 18 19 18 18 21 20 19 21 23 26 26 25 26 25 24 25 24 24 22 21 20 20 19 17 16 15 15 14 14 13 13 13 12 12 11 11 10 10 11 11 11 11 9 9 9 8 8 7 6 5 5 5 4 4 4 3 3 4
8 9 8 8 9 8 6 7 9 9 8 9 9 1 8 9 9 9 8 10 12 10 10 10 11 13 13 11 10 10 10 11 10 8 8 6 5 9 14 16 18 19 15 13 15 12 9 12 20 25 24 25 25 25 24 25 24 23 22 21 21 20 19 17 16 16 15 15 14 14 13 12 12 12 12 11 10 11 11 11 11 10 10 9 8 8 8 7 7 6 5 5 4 4 4 4 4
6 8 9 8 10 9 7 7 9 10 9 7 5 8 9 10 10 9 9 9 10 10 10 11 12 14 13 8 8 8 7 8 7 4 5 6 6 12 15 15 16 18 13 10 14 13 13 16 19 23 24 23 24 25 24 24 24 24 25 24 22 21 20 19 18 18 17 16 16 15 14 13 12 12 12 12 12 12 12 11 11 11 11 10 9 9 9 8 7 7 7 6 6 6 5 5 5
4 8 9 9 11 10 7 5 7 9 9 8 9 12 11 9 7 6 10 11 9 9 10 11 13 14 12 8 7 7 6 6 5 3 5 7 9 12 14 14 15 16 13 12 16 13 17 21 19 21 25 23 23 24 23 23 24 24 25 26 24 22 22 21 20 19 18 18 17 17 16 15 14 13 12 13 14 14 13 12 12 12 12 12 11 10 10 9 8 8 8 7 7 6 6 6 6
10 5 2 6 9 8 6 5 5 7 8 8 11 15 10 9 8 7 11 12 10 9 10 11 13 13 12 9 9 9 8 7 7 7 7 7 8 10 12 12 11 12 10 12 18 15 17 18 14 17 23 24 23 23 22 23 23 22 23 25 26 25 24 22 21 21 20 19 19 18 17 17 16 15 14 13 14 15 14 14 13 12 12 12 12 11 11 11 11 10 9 8 8 8 8 7 6
13 9 5 7 7 6 7 6 4 6 7 8 11 13 7 7 11 11 11 11 10 10 10 11 12 12 12 10 9 9 7 6 7 8 8 8 10 12 13 11 8 11 12 12 15 17 17 18 17 17 22 24 24 23 22 23 23 22 21 23 26 26 25 24 22 23 22 21 21 20 19 18 18 17 17 16 15 15 15 15 15 14 13 13 13 13 12 12 12 11 10 9 10 10 10 8 7
10 8 6 7 7 7 8 7 6 6 5 7 8 7 5 6 10 12 14 12 10 10 11 11 10 12 12 10 9 8 6 6 5 4 7 10 12 12 11 8 8 10 12 13 15 16 16 19 21 20 21 24 24 23 22 22 22 22 22 22 24 25 25 24 22 23 23 22 22 22 20 19 19 19 19 18 18 16 16 16 16 15 15 15 14 14 13 13 13 13 12 12 11 10 9 9 9
9 9 8 8 9 9 6 6 8 8 6 6 3 6 6 6 8 10 12 12 11 11 13 13 12 13 12 10 10 10 7 7 9 7 2 4 6 7 6 7 8 9 10 11 14 17 18 21 23 22 21 22 21 20 19 19 18 20 22 22 24 25 24 24 23 23 23 23 23 23 22 21 20 20 20 20 20 19 17 17 17 17 16 16 16 16 15 14 14 14 13 13 12 11 10 10 9
Wind_Direction
146 165 180 196 217 237 242 214 287 235 229 269 281 308 260 169 146 126 128 129 103 173 118 94 90 84 81 92 96 74 68 78 88 104 103 129 143 148 144 136 136 135 134 133 132 130 128 130 131 133 132 130 127 121 117 112 111 110 105 100 98 96 92 92 94 96 91 85 83 82 81 83 86 89 88 84 84 88 90 93 96 96 99 99 99 101 103 106 106 106 101 100 102 104 103 101 102
156 177 203 213 220 229 260 267 257 238 215 264 273 204 275 228 132 124 130 127 115 119 94 89 86 78 77 85 90 74 62 65 86 87 105 133 141 142 140 138 136 134 134 133 132 131 131 132 133 132 129 128 126 121 115 112 114 108 102 99 97 94 93 94 94 94 89 85 85 82 80 86 92 94 91 84 81 84 88 94 98 98 100 100 101 104 105 106 106 106 105 104 107 108 105 101 102
188 211 223 209 228 246 68 276 257 279 241 230 136 159 194 163 134 127 117 117 121 112 92 88 73 61 76 77 77 81 82 79 94 97 116 136 138 138 140 137 135 133 133 132 131 130 130 129 127 125 125 125 122 118 114 115 113 105 102 101 98 97 97 93 90 90 87 85 85 84 82 86 91 93 91 86 84 85 87 91 97 100 99 100 103 104 103 105 106 105 103 105 111 113 109 105 106
216 247 240 183 259 290 200 232 251 282 269 244 127 152 176 142 130 133 129 120 115 106 98 98 77 61 83 88 88 90 97 91 102 110 125 138 135 138 140 137 135 134 133 131 129 129 129 127 125 124 123 122 119 117 116 115 109 104 104 104 102 97 93 91 89 88 87 86 87 87 85 87 91 91 89 87 87 86 88 88 92 98 99 101 104 105 107 109 111 107 102 107 112 112 109 108 109
226 255 248 173 68 277 264 251 231 248 240 267 141 146 163 128 127 140 153 129 104 103 106 100 91 90 85 89 98 97 106 106 110 118 127 135 135 138 138 136 135 134 132 129 128 128 128 127 126 125 122 120 117 116 117 114 109 108 109 105 101 94 89 88 86 86 87 89 90 90 88 88 90 90 87 87 88 86 87 87 89 94 99 101 102 106 110 112 112 108 106 110 111 108 107 108 107
232 249 228 183 55 110 269 264 250 252 229 261 141 138 151 134 137 138 135 117 107 111 104 93 94 96 85 82 90 102 116 117 119 124 129 134 138 137 136 136 133 130 128 125 127 128 128 128 126 125 122 119 116 115 116 112 110 112 109 103 98 94 91 86 84 88 92 94 93 89 85 83 84 88 88 87 88 88 89 89 91 94 98 99 100 104 108 110 109 107 109 113 111 108 107 108 106
233 242 207 168 148 116 249 265 279 257 191 277 140 137 152 148 141 127 120 116 113 113 105 103 104 97 89 92 91 99 112 120 125 129 131 133 136 136 137 135 128 126 124 124 126 128 129 128 126 124 121 118 114 113 115 114 113 111 107 103 99 96 93 89 89 94 97 97 95 89 86 84 83 85 87 86 88 90 91 92 93 95 97 98 98 100 103 105 107 107 110 113 111 109 108 107 104
243 247 63 277 241 243 233 262 280 268 46 178 137 130 149 157 143 123 119 116 112 112 108 105 105 98 94 97 95 101 111 118 124 128 130 132 135 136 136 133 127 124 123 124 126 128 128 126 126 123 121 117 114 115 119 118 112 110 108 103 100 98 96 95 95 95 96 95 95 93 90 88 86 85 86 86 87 89 92 93 93 95 97 97 98 100 102 103 106 108 110 110 109 108 107 107 105
246 7 52 314 266 271 268 266 262 235 317 156 123 121 140 141 122 117 117 114 116 117 109 106 104 101 100 98 97 105 112 118 123 126 129 130 134 135 133 131 128 125 123 125 126 126 125 125 125 123 122 117 117 119 120 117 113 114 110 104 102 101 100 99 100 97 96 95 95 96 95 93 88 85 85 85 86 88 91 93 92 94 95 96 98 100 102 103 105 107 107 107 107 108 108 107 107
199 42 70 288 266 276 283 221 136 190 199 107 121 127 120 67 66 106 120 118 121 114 105 106 104 105 106 103 101 109 117 123 126 128 130 129 130 132 131 130 128 127 125 125 125 125 125 126 126 124 122 119 119 120 118 117 118 120 113 109 104 101 102 101 102 101 98 97 97 98 97 96 91 86 86 85 84 89 92 92 92 93 95 97 99 100 102 103 104 104 104 106 109 110 111 109 107
195 60 125 282 282 292 305 142 120 187 161 125 129 119 99 87 64 107 122 112 113 113 114 115 109 109 108 102 103 117 125 129 130 131 131 130 132 130 129 128 126 127 126 126 127 126 127 127 126 124 122 120 120 118 119 120 122 123 119 114 107 105 104 103 104 103 101 101 100 97 96 97 94 90 87 86 85 89 93 93 94 94 97 99 101 102 102 102 103 103 105 111 115 114 113 110 108
261 21 191 285 315 329 321 131 128 155 155 132 141 25 91 122 130 130 123 109 118 116 115 121 117 115 109 106 112 125 131 132 133 132 130 132 135 130 129 128 126 128 127 127 127 128 130 128 126 125 123 122 121 120 121 122 125 126 122 115 111 112 109 108 107 106 106 107 104 100 99 99 97 94 90 88 88 90 93 95 95 96 98 101 103 104 104 105 106 108 111 116 118 116 114 113 113
340 307 280 298 315 314 244 131 134 143 142 132 145 132 107 139 106 92 101 100 108 108 112 125 125 120 110 113 124 131 134 133 135 134 130 133 134 131 130 129 127 128 128 128 127 129 130 129 129 128 127 124 121 121 121 123 128 125 118 115 113 113 113 113 111 112 111 110 109 105 102 99 97 95 93 91 91 91 93 96 98 99 101 103 105 106 107 108 111 112 115 116 116 116 115 115 117
145 227 317 311 271 238 139 125 136 127 125 144 137 122 101 108 97 94 113 119 131 136 140 140 127 116 115 124 131 138 136 135 137 135 134 135 133 131 129 128 128 128 128 129 129 130 130 130 130 130 130 127 124 123 122 126 129 124 118 119 115 111 113 114 115 114 112 110 109 106 103 100 97 95 95 95 95 96 96 98 102 103 104 105 107 109 111 112 113 113 115 116 115 115 114 115 118
180 108 43 298 305 21 130 134 145 126 134 152 120 119 112 77 100 120 112 121 131 116 127 137 131 123 134 140 139 143 139 138 138 135 135 134 128 127 126 127 129 130 130 130 130 131 130 129 130 131 133 130 128 126 126 128 127 126 124 121 116 113 114 116 117 115 114 112 109 109 106 103 100 97 98 98 98 99 100 102 105 107 107 108 110 112 115 115 115 115 116 116 116 115 113 115 118
150 93 130 297 320 354 86 120 147 133 129 137 111 124 129 88 61 105 74 311 122 108 117 139 139 138 143 142 137 141 140 139 138 135 134 130 126 126 127 127 129 130 130 132 132 131 129 129 132 134 133 130 129 126 127 128 125 127 130 125 120 117 117 119 119 116 116 114 114 114 109 107 104 100 99 101 101 100 102 104 106 109 110 110 113 113 114 116 118 117 117 117 117 117 114 116 119
110 101 299 1 284 357 64 117 158 142 127 134 124 124 126 97 48 82 63 326 106 129 155 148 144 140 138 137 136 140 140 139 138 135 133 130 130 131 130 131 130 128 130 132 130 130 129 129 133 135 133 132 132 126 126 128 124 125 129 127 122 121 120 122 120 118 118 118 121 118 113 113 111 109 105 102 101 101 103 106 108 110 112 113 113 112 113 116 119 118 117 117 117 117 116 117 118
96 108 274 314 301 24 85 123 144 145 141 144 136 128 124 112 99 89 71 27 133 141 136 147 149 132 128 134 137 140 141 142 140 137 137 135 134 135 134 134 132 129 132 132 131 130 129 130 133 135 135 135 135 130 130 133 128 128 135 131 125 125 124 122 119 121 124 124 125 121 118 119 116 116 115 108 104 104 106 109 111 111 112 112 111 112 115 117 118 118 116 114 113 112 112 113 113
108 221 260 247 155 147 122 128 142 149 143 144 142 147 136 120 119 168 150 146 161 139 127 193 147 127 130 137 140 142 144 145 142 141 143 142 140 140 138 137 134 134 136 135 133 133 135 135 135 138 138 137 140 138 136 137 133 134 142 139 130 130 128 125 123 127 132 132 130 124 121 124 123 120 119 115 109 108 109 114 117 115 112 111 112 112 115 116 116 116 115 114 114 112 110 109 107
188 205 292 258 158 146 137 134 143 146 140 140 137 155 151 127 132 192 154 138 150 139 153 196 144 135 140 142 143 145 147 147 145 146 148 146 145 143 141 140 140 139 138 138 136 140 144 139 141 145 142 140 143 142 138 138 135 134 144 146 137 135 134 133 135 139 143 144 136 127 122 124 125 124 122 117 114 113 114 116 117 116 114 112 113 113 115 115 116 119 118 119 120 121 127 130 124
202 205 265 239 156 130 131 128 132 139 141 139 135 150 142 127 153 177 147 133 148 156 187 189 145 141 147 145 147 149 149 148 148 151 149 148 146 143 142 141 142 140 138 140 138 144 146 142 147 148 142 143 143 141 141 139 136 136 144 148 142 140 140 143 147 151 151 148 139 129 124 121 122 126 124 120 119 118 118 116 114 116 116 115 116 118 119 118 118 121 120 122 125 134 146 148 149
212 230 260 263 179 124 132 133 136 139 137 138 140 146 131 123 157 170 158 139 158 177 185 174 146 145 150 148 150 150 151 150 152 153 151 151 146 142 143 142 142 141 141 144 142 145 147 147 150 147 140 141 140 141 143 141 140 141 144 150 151 144 142 151 154 154 149 141 134 129 128 127 131 131 130 137 131 124 123 121 122 120 117 118 122 129 135 131 131 137 135 136 137 140 139 135 133
256 243 261 275 270 127 139 147 143 137 138 145 144 135 116 117 137 167 179 142 171 206 171 152 146 148 149 149 151 152 153 153 154 154 155 153 148 146 146 144 144 142 144 146 142 145 149 150 150 148 143 139 138 140 141 140 141 144 147 157 162 150 147 157 158 156 151 144 140 139 139 137 141 139 138 146 143 135 135 136 135 125 123 125 123 131 141 138 141 153 154 148 138 130 122 115 114
270 268 250 264 264 122 140 149 141 134 138 146 139 125 123 151 138 158 197 154 173 214 165 144 147 150 150 152 153 152 154 154 155 155 157 155 150 149 147 146 144 142 145 145 141 143 150 152 151 149 146 143 142 138 135 134 139 150 152 159 164 155 151 155 157 158 154 150 151 148 145 141 141 142 144 148 149 146 141 142 140 128 132 129 118 122 124 125 128 129 125 119 128 131 124 118 115
250 248 279 274 270 111 130 134 132 130 132 150 148 134 150 173 131 144 199 173 175 192 166 149 149 153 154 156 155 153 157 155 155 156 157 157 152 148 147 144 140 142 148 146 142 145 149 150 147 148 145 144 145 141 140 137 141 153 157 160 161 156 154 150 151 156 152 151 158 155 147 147 148 142 143 151 156 152 150 150 148 148 141 124 120 122 116 115 116 115 120 122 128 131 126 127 126
228 229 205 261 269 113 124 125 131 133 134 158 151 134 150 158 124 156 197 174 173 172 161 155 154 158 157 157 155 155 159 156 157 157 157 157 152 150 146 143 140 145 151 145 143 147 147 145 144 147 145 144 146 146 149 150 146 151 161 166 156 150 153 151 148 151 150 149 158 160 151 151 150 139 141 149 149 145 150 153 148 149 133 113 115 120 114 106 106 113 125 129 128 126 119 121 126
223 242 216 238 265 17 126 126 131 128 136 151 141 132 147 157 152 176 186 170 173 169 160 159 158 158 159 158 154 157 160 158 160 158 159 157 152 152 146 144 146 148 152 144 142 147 146 145 146 146 144 144 146 147 151 156 149 141 148 156 149 143 142 146 149 153 154 146 146 151 148 151 147 138 138 140 139 136 140 144 144 149 143 121 108 110 115 109 113 123 121 121 114 116 118 115 119
217 250 241 240 242 209 172 126 122 114 129 132 120 133 150 174 197 179 170 172 181 174 160 158 158 158 161 157 154 162 162 159 163 161 160 154 152 153 147 148 149 150 153 143 142 147 146 147 146 143 144 143 144 148 153 156 152 142 141 140 143 143 135 137 146 150 151 144 139 132 132 142 142 140 138 136 139 137 132 127 129 140 145 137 115 110 117 117 120 112 107 113 107 110 121 123 123
221 256 258 244 235 201 145 109 109 107 120 123 121 136 160 202 218 168 158 182 202 177 159 158 158 159 161 156 156 162 162 164 166 161 156 151 154 154 149 151 150 151 150 140 145 151 147 147 144 142 144 143 141 145 149 152 153 152 152 153 158 158 147 142 142 142 142 141 140 126 117 127 134 136 137 137 136 133 130 127 122 120 121 123 120 120 121 119 121 107 94 104 111 119 121 121 128
224 250 256 251 245 196 136 104 102 103 127 149 144 138 181 226 228 177 153 202 212 171 158 163 158 160 161 155 159 162 162 168 165 157 153 153 157 155 151 152 150 149 143 141 151 151 146 146 145 143 145 144 140 141 143 145 148 150 150 155 161 160 156 153 146 143 144 142 140 130 120 127 134 133 130 132 130 127 128 128 121 115 117 122 120 124 121 114 120 109 101 117 124 138 122 116 128
232 239 245 248 249 172 140 117 108 106 164 182 164 120 186 227 217 179 124 229 210 166 163 168 159 161 160 155 161 164 163 169 165 157 155 156 160 157 152 152 150 147 142 147 155 147 143 146 146 145 146 145 141 140 143 143 142 141 143 148 153 151 150 152 148 146 147 143 139 134 131 133 138 137 129 128 132 130 129 127 123 124 129 128 119 119 116 104 108 104 109 120 103 119 117 110 123
231 231 235 225 240 172 138 126 119 123 171 192 187 138 165 199 181 149 124 232 215 170 170 168 164 164 157 158 165 164 164 168 166 160 159 159 161 160 155 153 151 148 147 152 152 145 144 148 148 147 148 147 142 140 141 141 138 139 143 146 147 146 145 147 146 147 146 143 140 139 139 138 141 143 130 128 134 131 134 133 128 130 132 133 129 119 116 110 104 96 94 89 63 97 115 108 115
214 217 233 214 226 225 149 109 119 129 150 180 187 150 151 174 159 143 172 205 160 171 194 169 171 169 157 163 166 164 165 167 169 164 162 162 163 162 157 155 151 148 150 151 150 145 144 148 151 149 149 146 142 142 140 138 138 139 145 147 149 149 147 148 148 148 146 143 143 142 143 140 142 143 133 133 136 134 137 133 133 141 134 132 128 118 127 124 118 111 89 93 77 72 113 116 116
206 210 224 209 221 228 182 153 139 139 144 163 165 146 147 152 143 144 168 173 109 132 215 203 201 177 159 167 167 165 168 169 172 166 162 164 165 162 159 156 151 150 150 149 151 148 145 151 153 148 147 145 143 143 141 140 141 141 146 150 153 151 148 148 148 148 144 142 144 145 144 140 144 147 138 133 134 132 134 135 140 137 128 131 125 121 130 121 119 119 87 88 93 69 60 96 99
214 205 206 207 221 232 183 159 156 159 157 158 160 131 130 142 145 147 158 160 136 138 163 223 231 188 164 171 169 165 169 171 174 169 164 165 167 163 160 157 152 153 152 150 152 147 148 152 148 145 147 146 145 145 143 141 143 144 148 153 155 154 150 148 148 145 141 143 146 146 144 143 149 151 141 129 125 127 127 134 137 123 127 142 130 121 115 101 107 105 94 113 107 65 42 66 88
244 218 208 207 208 239 207 153 147 166 160 150 161 126 132 155 160 152 167 170 152 155 170 198 249 219 178 177 172 167 171 171 172 173 167 165 168 163 160 157 154 156 152 149 151 147 150 151 144 146 150 148 147 148 147 145 147 150 152 155 160 158 149 145 149 147 143 144 146 146 147 151 151 152 151 136 127 133 133 135 138 128 133 141 135 133 126 123 112 96 108 151 121 62 28 73 93
268 262 240 224 209 246 208 138 138 164 161 144 148 130 137 153 153 153 171 176 159 170 184 158 171 257 235 195 178 169 172 170 171 175 168 165 169 163 160 160 158 157 151 150 153 151 153 152 148 152 153 150 153 154 154 153 154 156 157 160 162 158 148 147 152 152 147 145 149 149 150 155 154 153 160 149 134 138 138 136 137 138 139 138 144 145 133 133 118 109 136 134 77 59 282 172 95
264 269 267 257 228 236 138 130 151 161 139 141 150 146 148 147 151 156 163 175 173 172 185 166 171 206 229 224 192 171 171 171 170 174 170 169 170 162 162 164 162 158 153 154 157 155 157 156 154 157 156 155 160 160 159 159 157 160 163 164 163 157 152 152 153 153 151 152 156 153 152 160 157 153 160 156 142 139 138 143 147 147 147 138 131 123 118 128 126 126 138 135 161 268 293 77 89
256 254 257 272 233 204 142 146 168 163 127 152 163 160 163 158 159 163 165 176 177 174 185 180 182 192 189 211 210 178 173 172 171 175 172 172 170 162 164 167 164 159 156 159 160 157 158 159 158 160 159 160 165 163 162 161 159 164 167 166 162 157 157 155 152 152 149 152 157 156 161 164 157 155 162 156 148 145 142 145 148 143 144 149 144 138 136 139 145 135 122 156 183 267 338 75 100
256 254 247 269 237 209 187 162 172 172 157 163 166 162 168 169 166 169 172 174 174 177 183 180 186 193 178 202 208 182 175 173 174 177 174 174 170 164 167 169 166 161 161 163 163 162 161 161 163 164 163 165 166 165 165 162 162 165 165 162 157 154 158 152 147 151 151 153 158 162 170 166 159 160 161 157 152 152 151 150 153 148 150 159 155 152 145 141 157 161 155 154 108 43 30 62 121
240 249 242 248 240 229 163 130 161 186 163 150 154 154 161 179 173 172 176 170 170 173 172 178 177 129 328 247 216 192 187 179 181 181 175 175 171 167 168 170 168 165 165 167 166 167 164 163 167 167 166 167 166 166 166 162 162 163 158 158 156 153 158 154 149 155 159 162 162 165 170 166 164 162 160 166 158 153 160 159 157 152 153 153 148 158 155 144 158 161 159 162 119 70 62 30 86
229 233 232 236 237 217 150 137 183 211 163 154 166 182 165 181 180 172 179 174 169 172 168 172 172 146 180 248 224 216 200 182 187 186 177 177 174 169 168 172 173 168 169 171 169 170 166 164 169 169 169 169 167 168 167 164 163 163 160 161 162 159 160 162 161 161 163 168 165 165 168 168 169 163 165 172 160 157 164 159 154 151 156 163 160 168 165 152 152 145 155 175 155 115 94 69 60
230 212 220 238 252 234 196 205 229 229 228 176 183 226 177 169 178 174 185 178 164 171 169 161 165 159 162 223 226 218 201 186 191 187 180 180 176 171 170 176 178 172 171 173 171 171 166 165 169 171 172 171 169 169 168 167 167 168 168 163 163 163 162 168 172 165 164 168 165 162 165 169 170 164 168 170 160 162 161 157 160 154 157 168 167 163 159 155 144 139 156 155 145 132 104 71 56
242 215 210 223 250 255 247 287 267 229 257 202 184 224 209 151 174 179 183 168 155 168 172 159 163 164 161 198 217 211 202 194 190 187 186 182 176 175 174 179 182 175 172 174 173 171 166 166 170 172 173 173 171 171 170 171 171 173 176 170 165 167 166 169 173 164 160 162 162 162 163 167 171 167 167 167 164 164 161 163 165 156 159 163 162 166 159 145 131 132 143 124 127 123 98 76 67
241 242 241 227 235 253 257 268 260 223 243 232 182 200 194 132 157 167 158 144 150 168 166 158 169 169 165 184 202 200 193 193 189 189 191 183 177 178 178 181 185 179 173 175 174 169 165 166 170 172 174 174 174 174 172 174 174 174 178 175 170 172 169 167 172 166 160 158 159 163 162 162 169 171 166 166 169 167 163 167 164 164 167 155 160 169 148 146 140 139 140 128 136 121 87 80 81
235 250 289 263 220 225 242 246 249 225 238 240 198 194 185 139 153 160 155 150 158 168 161 163 174 176 173 175 186 191 184 187 190 190 192 186 181 181 180 182 188 183 175 175 174 169 167 168 171 174 175 175 176 177 176 175 175 176 180 178 173 175 169 166 173 171 163 160 158 160 160 161 167 171 167 167 171 168 167 168 162 168 169 151 161 160 139 147 142 141 153 140 143 137 113 105 71
235 234 266 269 213 196 219 227 233 238 232 232 227 205 176 161 168 172 165 147 151 163 167 168 164 178 193 178 177 188 185 179 180 186 195 192 186 182 177 180 192 189 175 175 176 170 169 170 172 176 176 176 177 178 179 178 176 178 181 181 177 175 171 168 175 173 164 163 163 162 164 165 169 172 171 170 172 171 170 170 162 167 175 159 151 147 146 155 144 146 156 135 140 153 136 131 156
236 230 214 247 233 190 228 233 235 247 235 232 243 226 196 193 171 154 133 124 144 160 158 175 175 179 197 192 182 185 183 177 170 177 194 189 184 183 178 180 197 197 177 175 180 173 171 172 173 176 178 178 179 178 180 181 179 181 182 184 182 177 175 174 176 175 171 171 174 172 172 175 177 175 174 171 174 175 172 173 169 167 174 158 147 158 158 151 155 160 153 141 153 159 141 153 182
232 237 204 213 209 184 223 228 220 232 241 237 237 229 225 32 95 125 135 140 153 149 144 175 195 183 186 190 187 185 180 176 173 178 192 186 179 186 184 181 197 207 183 174 182 177 172 173 174 178 179 180 180 179 181 183 183 183 183 184 186 182 181 180 178 178 178 179 181 178 177 183 185 181 178 176 178 178 173 174 173 167 169 160 159 171 154 137 159 154 139 147 170 157 157 191 203
214 226 205 205 209 195 208 221 215 220 237 245 245 228 185 96 104 131 147 142 140 132 139 166 184 183 186 184 181 182 179 179 178 182 191 190 184 187 188 183 194 211 192 181 187 180 173 175 176 178 181 181 182 181 182 185 186 187 185 184 185 186 186 185 182 182 182 183 186 185 182 185 189 187 185 181 179 177 172 173 174 169 169 169 173 172 151 152 174 149 135 163 186 169 173 195 213
208 229 214 199 222 217 203 213 218 218 224 237 247 233 151 129 123 129 132 122 123 127 136 149 151 158 175 181 177 176 175 177 180 181 184 190 191 190 192 189 192 205 199 186 187 178 168 173 177 179 182 182 183 184 184 185 186 187 188 186 185 187 189 189 188 187 186 185 188 190 187 186 188 190 189 185 180 176 174 175 176 176 174 172 176 174 163 173 185 167 165 189 198 185 185 205 232
201 230 228 201 222 231 216 221 220 216 219 222 228 174 95 117 121 121 127 121 123 129 133 131 115 124 152 171 173 174 175 174 174 176 172 170 206 210 201 196 194 202 203 181 176 173 154 168 182 183 184 185 185 187 187 187 187 187 188 189 187 188 188 190 193 191 189 189 190 192 193 191 189 190 189 186 183 180 179 180 178 180 181 178 178 178 177 186 190 187 196 210 214 209 204 207 234
194 211 226 219 233 245 240 228 219 215 219 213 167 105 105 130 133 133 129 113 116 117 115 117 111 114 131 148 164 170 168 159 149 143 145 154 208 217 202 198 197 199 201 170 158 170 171 176 187 188 187 189 187 189 190 190 188 187 189 190 190 190 189 191 194 194 192 193 194 193 194 195 192 190 189 188 189 186 183 184 183 184 185 184 187 186 186 195 195 190 201 215 216 216 221 216 227
225 198 209 226 241 258 267 244 227 219 219 212 157 134 144 151 134 126 119 103 96 100 103 110 112 111 113 118 140 148 145 131 118 148 181 184 207 212 199 198 198 194 193 159 141 160 183 184 190 193 191 193 192 191 192 192 191 190 190 191 191 192 193 193 194 194 194 193 195 195 195 196 195 193 192 191 191 190 189 190 188 190 191 188 192 193 192 198 199 197 205 216 219 219 228 228 227
249 244 238 246 237 237 246 249 246 229 229 221 162 145 160 162 144 141 129 117 104 95 92 95 98 102 107 112 120 127 138 141 147 175 200 203 203 205 196 192 183 170 161 138 136 158 188 193 200 201 197 198 198 196 194 194 194 194 194 193 193 194 196 197 195 194 195 194 194 196 197 197 195 196 197 193 190 189 192 195 192 194 197 194 195 198 197 199 202 204 208 211 218 221 224 231 232
252 275 287 260 246 237 226 213 237 243 237 226 175 153 158 150 143 138 121 111 109 101 93 89 86 88 93 100 110 115 123 131 146 170 186 193 190 191 191 181 152 141 136 134 149 164 180 192 201 206 205 203 203 203 201 197 195 198 199 196 196 197 197 200 199 194 196 198 197 196 198 198 196 196 199 197 194 192 193 196 196 196 199 197 198 200 201 203 205 207 208 211 218 218 217 225 232
232 247 241 228 224 241 239 210 219 245 244 236 206 158 115 111 130 133 121 114 114 106 96 90 85 84 81 76 83 93 99 96 89 130 183 190 182 175 176 159 135 141 141 149 169 171 177 194 199 202 207 207 206 207 206 203 201 201 203 199 199 201 199 200 202 199 198 200 200 198 197 199 198 197 199 199 198 200 198 197 199 200 201 200 201 201 203 207 209 211 211 214 219 216 214 222 229
223 224 221 219 215 220 237 225 216 226 250 258 206 121 99 106 125 134 130 127 124 112 98 90 85 84 79 67 65 67 71 78 65 55 98 169 159 148 134 116 122 140 141 155 178 177 181 197 203 205 209 209 210 212 210 213 213 210 210 206 201 202 201 201 202 203 203 201 201 203 200 199 199 198 200 200 200 202 203 201 201 204 205 205 204 204 205 209 213 214 215 217 219 217 215 220 226